TimeCST,TemperatureF,Dew PointF,Humidity,Sea Level PressureIn,VisibilityMPH,Wind Direction,Wind SpeedMPH,Gust SpeedMPH,PrecipitationIn,Events,Conditions,WindDirDegrees,DateUTC
12:15 AM,35.6,33.8,93,29.98,10.0,ESE,9.2,-,N/A,,Scattered Clouds,110,2012-12-15 06:15:00
12:35 AM,35.6,33.8,93,29.97,10.0,East,9.2,-,N/A,,Clear,100,2012-12-15 06:35:00
12:55 AM,35.6,32.0,87,29.97,10.0,ESE,9.2,-,N/A,,Clear,110,2012-12-15 06:55:00
1:15 AM,35.6,32.0,87,29.97,10.0,East,10.4,-,N/A,,Clear,100,2012-12-15 07:15:00
1:35 AM,35.6,32.0,87,29.96,10.0,ESE,9.2,-,N/A,,Mostly Cloudy,110,2012-12-15 07:35:00
1:55 AM,35.6,32.0,87,29.96,10.0,ESE,10.4,-,N/A,,Overcast,110,2012-12-15 07:55:00
2:15 AM,35.6,32.0,87,29.95,10.0,ESE,10.4,-,N/A,,Overcast,120,2012-12-15 08:15:00
2:35 AM,37.4,32.0,81,29.94,10.0,ESE,10.4,-,N/A,,Overcast,110,2012-12-15 08:35:00
2:55 AM,37.4,32.0,81,29.93,10.0,ESE,10.4,-,N/A,,Overcast,110,2012-12-15 08:55:00
3:15 AM,37.4,32.0,81,29.92,10.0,East,10.4,-,N/A,,Overcast,100,2012-12-15 09:15:00
3:35 AM,37.4,32.0,81,29.91,10.0,ESE,10.4,-,N/A,,Overcast,110,2012-12-15 09:35:00
3:55 AM,37.4,32.0,81,29.92,10.0,ESE,8.1,-,N/A,,Overcast,120,2012-12-15 09:55:00
4:15 AM,37.4,32.0,81,29.91,10.0,ESE,9.2,-,N/A,,Overcast,110,2012-12-15 10:15:00
4:35 AM,37.4,32.0,81,29.91,10.0,ESE,10.4,-,N/A,,Overcast,120,2012-12-15 10:35:00
4:55 AM,37.4,32.0,81,29.90,10.0,ESE,9.2,-,N/A,,Overcast,120,2012-12-15 10:55:00
5:15 AM,37.4,32.0,81,29.91,10.0,SE,10.4,-,N/A,,Overcast,130,2012-12-15 11:15:00
5:35 AM,37.4,32.0,81,29.90,10.0,ESE,9.2,-,N/A,Rain,Light Rain,120,2012-12-15 11:35:00
5:55 AM,37.4,32.0,81,29.88,10.0,SE,10.4,-,N/A,,Light Drizzle,130,2012-12-15 11:55:00
6:15 AM,37.4,32.0,81,29.87,10.0,ESE,11.5,-,N/A,,Light Drizzle,120,2012-12-15 12:15:00
6:35 AM,37.4,32.0,81,29.84,10.0,ESE,9.2,-,N/A,,Drizzle,110,2012-12-15 12:35:00
6:55 AM,37.4,32.0,81,29.84,10.0,ESE,10.4,-,N/A,,Mostly Cloudy,120,2012-12-15 12:55:00
7:15 AM,37.4,32.0,81,29.83,10.0,ESE,10.4,-,N/A,Rain,Light Rain,110,2012-12-15 13:15:00
7:35 AM,37.4,32.0,81,29.82,10.0,East,10.4,-,N/A,Rain,Rain,100,2012-12-15 13:35:00
7:55 AM,37.4,32.0,81,29.81,7.0,ESE,11.5,-,N/A,Rain,Rain,110,2012-12-15 13:55:00
8:15 AM,37.4,32.0,81,29.82,7.0,SE,15.0,20.7,0.01,Rain,Light Rain,130,2012-12-15 14:15:00
8:35 AM,37.4,33.8,87,29.79,7.0,ESE,12.7,18.4,0.02,Rain,Light Rain,110,2012-12-15 14:35:00
8:55 AM,37.4,33.8,87,29.76,10.0,East,13.8,-,0.02,Rain,Light Rain,90,2012-12-15 14:55:00
9:15 AM,37.4,33.8,87,29.77,7.0,ESE,11.5,19.6,0.02,Rain,Rain,110,2012-12-15 15:15:00
9:35 AM,37.4,35.6,93,29.76,7.0,ESE,10.4,17.3,0.03,Rain,Light Rain,110,2012-12-15 15:35:00
9:55 AM,37.4,35.6,93,29.77,7.0,ESE,13.8,-,0.04,Rain,Light Rain,110,2012-12-15 15:55:00
10:15 AM,39.2,37.4,93,29.75,5.0,ESE,15.0,21.9,0.03,Rain,Rain,110,2012-12-15 16:15:00
10:35 AM,41.0,37.4,87,29.72,5.0,ESE,17.3,-,0.04,Rain,Rain,110,2012-12-15 16:35:00
10:55 AM,41.0,39.2,93,29.70,3.0,ESE,12.7,21.9,0.04,Rain,Light Rain,110,2012-12-15 16:55:00
11:15 AM,41.0,41.0,100,29.69,4.0,ESE,13.8,18.4,0.01,Rain,Light Rain,120,2012-12-15 17:15:00
11:35 AM,41.0,41.0,100,29.67,4.0,ESE,16.1,20.7,0.01,Rain,Light Rain,120,2012-12-15 17:35:00
11:55 AM,41.0,41.0,100,29.66,4.0,SE,15.0,23.0,0.01,,Drizzle,130,2012-12-15 17:55:00
12:15 PM,41.0,41.0,100,29.64,3.0,ESE,12.7,-,0.01,,Drizzle,120,2012-12-15 18:15:00
12:35 PM,41.0,41.0,100,29.63,3.0,ESE,11.5,-,0.01,,Drizzle,120,2012-12-15 18:35:00
12:55 PM,41.0,41.0,100,29.61,4.0,SE,13.8,17.3,0.01,,Drizzle,130,2012-12-15 18:55:00
1:15 PM,41.0,41.0,100,29.60,4.0,SE,12.7,17.3,N/A,,Light Drizzle,130,2012-12-15 19:15:00
1:35 PM,41.0,41.0,100,29.59,2.5,SE,12.7,-,N/A,Rain,Light Rain,130,2012-12-15 19:35:00
1:55 PM,41.0,41.0,100,29.57,3.0,ESE,10.4,-,N/A,Rain,Light Rain,120,2012-12-15 19:55:00
2:15 PM,41.0,41.0,100,29.57,3.0,SE,9.2,-,0.01,Rain,Light Rain,130,2012-12-15 20:15:00
2:35 PM,41.0,41.0,100,29.56,2.0,ESE,9.2,-,0.01,Rain,Light Rain,120,2012-12-15 20:35:00
2:55 PM,41.0,41.0,100,29.56,5.0,SE,10.4,-,0.02,Rain,Rain,130,2012-12-15 20:55:00
3:15 PM,41.0,41.0,100,29.56,5.0,SE,9.2,-,0.01,Rain,Rain,130,2012-12-15 21:15:00
3:35 PM,41.0,41.0,100,29.55,5.0,SE,8.1,-,0.03,Rain,Light Rain,130,2012-12-15 21:35:00
3:55 PM,41.0,41.0,100,29.55,4.0,ESE,9.2,-,0.03,Rain,Rain,120,2012-12-15 21:55:00
4:15 PM,41.0,41.0,100,29.55,5.0,ESE,8.1,-,N/A,Rain,Rain,120,2012-12-15 22:15:00
4:35 PM,41.0,41.0,100,29.54,4.0,ESE,8.1,-,N/A,,Drizzle,120,2012-12-15 22:35:00
4:55 PM,41.0,41.0,100,29.54,3.0,ESE,6.9,-,N/A,,Light Drizzle,120,2012-12-15 22:55:00
5:15 PM,41.0,41.0,100,29.54,3.0,ESE,6.9,-,N/A,,Overcast,120,2012-12-15 23:15:00
5:35 PM,41.0,41.0,100,29.54,3.0,SE,6.9,-,N/A,,Overcast,130,2012-12-15 23:35:00
5:55 PM,42.8,42.8,100,29.54,2.5,SE,5.8,-,N/A,,Overcast,130,2012-12-15 23:55:00
6:15 PM,42.8,42.8,100,29.53,2.5,ESE,4.6,-,N/A,,Overcast,110,2012-12-16 00:15:00
6:35 PM,41.0,41.0,100,29.53,2.0,ESE,6.9,-,N/A,,Overcast,110,2012-12-16 00:35:00
6:55 PM,42.8,42.8,100,29.54,1.8,Calm,Calm,-,N/A,,Overcast,0,2012-12-16 00:55:00
7:15 PM,42.8,42.8,100,29.55,2.5,Calm,Calm,-,N/A,,Overcast,0,2012-12-16 01:15:00
7:35 PM,42.8,42.8,100,29.55,1.8,South,3.5,-,N/A,,Overcast,170,2012-12-16 01:35:00
7:55 PM,41.0,41.0,100,29.55,1.2,SSW,4.6,-,N/A,,Overcast,210,2012-12-16 01:55:00
8:15 PM,42.8,41.0,93,29.55,1.2,South,4.6,-,N/A,,Overcast,190,2012-12-16 02:15:00
8:35 PM,41.0,35.6,81,29.55,0.5,SSW,3.5,-,N/A,,Haze,210,2012-12-16 02:35:00
8:55 PM,42.8,37.4,81,29.55,0.2,WSW,4.6,-,N/A,,Haze,240,2012-12-16 02:55:00
9:15 PM,42.8,35.6,76,29.54,0.2,SSW,3.5,-,N/A,,Haze,210,2012-12-16 03:15:00
9:35 PM,41.0,41.0,100,29.54,0.2,SSW,4.6,-,N/A,Fog,Fog,200,2012-12-16 03:35:00
9:55 PM,42.8,42.8,100,29.54,0.2,SSW,4.6,-,N/A,Fog,Fog,200,2012-12-16 03:55:00
10:15 PM,42.8,42.8,100,29.54,0.2,South,4.6,-,N/A,Fog,Fog,190,2012-12-16 04:15:00
10:35 PM,42.8,42.8,100,29.53,0.2,South,4.6,-,N/A,Fog,Fog,190,2012-12-16 04:35:00
10:55 PM,41.0,41.0,100,29.53,0.2,SSW,3.5,-,N/A,Fog,Fog,200,2012-12-16 04:55:00
11:15 PM,41.0,41.0,100,29.54,0.2,SSW,3.5,-,N/A,Fog,Fog,200,2012-12-16 05:15:00
11:35 PM,41.0,41.0,100,29.54,0.2,SSW,4.6,-,N/A,Fog,Fog,200,2012-12-16 05:35:00
11:55 PM,42.8,42.8,100,29.54,0.5,South,5.8,-,N/A,Fog,Fog,180,2012-12-16 05:55:00